Location: Assenheim
(49.4234°N, 8.2871°E)
Time: 20:20:57
(UTC+00:00)

Daily predictions for brighter satellites

Satellite Brightness Start Highest point End
(mag) Time Altitude Azimuth Time Altitude Azimuth Time Altitude Azimuth
CENTAUR R/B 4.3 18:43:18 10° NW 18:51:00 47° WSW 18:59:19 10° S
CSL-04 Rocket 4.0 18:47:34 10° S 18:52:50 68° WSW 18:58:07 10° NNW
CZ-2C R/B 2.9 18:49:07 10° N 18:54:19 75° WNW 18:59:32 10° SSW
Cosmos 1992 Rocket 4.2 18:50:18 10° NNW 18:55:27 55° ENE 19:00:33 10° SE
DMSP B5D2-2 4.1 18:51:44 10° NNE 18:56:59 74° ESE 19:02:14 10° S
Cosmos 2360 Rocket 2.9 18:52:11 10° NW 18:57:44 56° WSW 19:03:13 10° S
ATLAS 3B R/B 3.0 18:51:14 10° NW 18:58:09 64° NE 19:05:22 10° SE
Cosmos 2058 Rocket 3.6 18:54:40 10° SSE 18:58:40 37° E 19:02:41 10° NNE
Cosmos 1689 Rocket 3.1 18:58:15 10° N 19:01:01 48° WNW 19:03:45 10° SSW
COSMOS 2428 2.9 18:55:35 10° NNW 19:01:18 61° ENE 19:06:58 10° SE
Cosmos 1953 Rocket 3.5 18:57:29 10° N 19:01:53 77° E 19:06:13 10° SSE
COSMOS 2487 2.7 18:59:10 10° S 19:02:25 43° ESE 19:05:40 10° NE
USA 186 1.9 19:00:31 10° S 19:03:44 77° WSW 19:06:51 10° NNW
SME Rocket 3.1 19:01:24 10° NNE 19:05:13 90° WNW 19:09:53 10° SSW
Cosmos 1092 Rocket 4.1 18:59:02 10° N 19:05:18 66° ENE 19:11:27 10° SSE
USA 215 3.6 18:59:15 10° E 19:05:41 62° NNE 19:12:09 10° WNW
Cosmos 2333 4.4 19:00:34 10° NNW 19:06:23 82° WSW 19:12:06 10° SSE
Cosmos 1833 4.2 19:03:41 10° SSW 19:09:19 88° ESE 19:15:01 10° NNE
Cosmos 1818 4.3 19:07:33 10° S 19:12:14 30° ESE 19:16:58 10° NE
FALCON 9 DEB 4.3 19:10:12 10° SSW 19:12:56 23° SE 19:15:43 10° E
NOSS 0 Rocket 4.4 19:07:09 10° NNW 19:13:12 50° NE 19:19:06 11° SE
ERS-2 2.7 19:10:56 10° N 19:14:34 63° WNW 19:18:09 10° SSW
Cosmos 2219 Rocket 2.2 19:09:01 10° NNW 19:14:46 85° ENE 19:20:27 10° SSE
Cosmos 44 4.0 19:12:01 10° S 19:16:38 36° ESE 19:21:29 10° NE
Resurs 01 Rocket 2.3 19:12:59 10° SE 19:17:05 38° ENE 19:21:13 10° N
Cosmos 1455 2.2 19:16:16 10° S 19:19:54 53° E 19:23:35 10° NNE
ATLAS 5 CENTAUR R/B 3.5 19:19:42 10° W 19:23:27 31° NNW 19:27:44 10° NNE
Cosmos 1633 4.2 19:25:41 10° NNE 19:28:23 19° ENE 19:30:05 15° ESE
Resurs 1-3 3.6 19:24:07 10° SSE 19:28:29 76° ENE 19:32:54 10° N
Cosmos 1356 4.1 19:26:40 10° N 19:29:53 37° ENE 19:32:13 16° SE
IGS 5A 4.0 19:27:42 13° SE 19:31:04 40° ENE 19:34:58 10° N
Lacrosse 5 rocket 2.8 19:27:19 10° W 19:31:10 37° NNW 19:35:13 10° NE
ATLAS 5 CENTAUR R/B 1.9 19:29:50 10° WNW 19:31:33 29° SW 19:33:14 13° SSE
Cosmos 405 Rocket 3.1 19:30:20 10° N 19:34:16 48° ENE 19:37:21 15° SE
Cosmos 2237 Rocket 2.6 19:36:01 10° NNW 19:41:31 49° NE 19:45:36 18° ESE
SJ-6B 4.0 19:38:45 10° S 19:42:16 40° W 19:45:51 10° NNW
Exosat Rocket 3.9 19:35:29 10° NNW 19:42:21 86° WSW 19:47:11 12° SSE
Cosmos 2279 Rocket 4.2 19:36:25 10° SSE 19:42:21 51° E 19:48:20 10° NNE
SPOT 5 4.4 19:40:17 14° E 19:42:42 20° ENE 19:46:06 10° NNE
BREEZE-M DEB (TANK) 3.7 19:39:00 10° WSW 19:43:39 60° S 19:48:44 12° E
Meteor 2-10 Rocket 4.1 19:38:40 10° SSW 19:43:53 65° WNW 19:49:21 10° N
Spot 2 Rocket 4.4 19:41:32 17° ESE 19:44:47 33° ENE 19:49:19 10° N
BREEZE-M DEB (TANK) 3.9 19:42:17 10° WSW 19:45:33 74° SSE 19:54:42 10° ENE
SL-8 R/B 4.1 19:41:05 10° W 19:45:46 51° SSW 19:48:58 19° SE
CZ-2C R/B 4.3 19:43:43 10° NNE 19:47:47 34° E 19:50:38 17° SSE
Cosmos 2026 Rocket 4.1 19:42:37 10° NNW 19:48:43 79° W 19:54:48 10° S
Cosmos 405 3.9 19:46:37 10° SSW 19:49:59 50° WNW 19:53:24 10° N
OBJECT-B 2.7 19:47:53 10° SSW 19:50:44 28° W 19:53:36 10° NNW
Terra 3.5 19:50:06 14° E 19:52:18 19° ENE 19:55:34 10° NNE
BREEZE-M DEB (TANK) 4.2 19:50:39 10° WSW 19:55:09 85° NNW 20:14:07 10° ENE
NOSS 3-4 (A) 4.2 19:50:07 10° WSW 19:55:55 55° NW 20:02:16 10° NE
NOSS 3-4 (C) 4.2 19:50:13 10° WSW 19:56:01 56° NW 20:02:23 10° NE
MetOp-B 4.2 19:52:09 17° SSE 19:56:18 64° ENE 20:01:37 10° N
Cosmos 2227 Rocket 3.2 19:57:04 21° SE 19:58:53 24° ESE 20:03:21 10° NE
SPOT 1/Viking Rocket 3.8 19:58:13 21° SE 20:01:39 56° ENE 20:06:47 10° N
Cosmos 389 Rocket 2.5 20:00:14 20° S 20:02:30 56° E 20:06:00 10° NNE
Cosmos 2251 Rocket 3.5 19:57:13 10° SSW 20:02:35 82° ESE 20:07:57 10° NNE
Cosmos 2333 Rocket 3.5 19:59:36 10° NW 20:04:52 38° WSW 20:10:05 10° S
Cosmos 2266 Rocket 4.3 19:59:41 10° N 20:05:55 51° ENE 20:09:47 23° SE
Cosmos 2297 Rocket 2.8 20:02:12 15° SSE 20:06:08 34° ESE 20:11:12 10° NE
Cosmos 1634 Rocket 4.3 20:00:55 10° SSW 20:07:11 73° WNW 20:13:27 10° N
BREEZE-M DEB (TANK) 1.5 20:05:37 10° W 20:07:55 64° SSW 20:08:17 51° SE
Cosmos 1825 3.4 20:04:31 10° NNW 20:08:03 39° W 20:11:35 10° SSW
SPOT 3 Rocket 3.6 20:03:45 15° SSE 20:08:10 81° WSW 20:13:24 10° NNW
Cosmos 2219 3.8 20:05:52 20° SSE 20:08:48 33° ESE 20:13:45 10° NE
ATLAS 2AS CENTAUR R/B 3.3 20:01:39 10° SW 20:09:34 71° NW 20:17:18 10° NE
ARIANE 5 R/B 3.0 20:09:20 28° SE 20:11:17 47° ENE 20:15:31 10° N
Ariane Rocket 4.2 20:09:07 10° SSW 20:13:49 39° W 20:18:34 10° NNW
Orbus 7S? 3.6 20:17:11 10° WSW 20:20:14 78° NNW 20:26:23 10° ENE
CZ-4C R/B 4.1 20:17:22 10° W 20:22:15 32° NNW 20:28:04 10° NE
RESURS DK-1 3.0 20:18:31 10° SW 20:22:35 57° NW 20:26:41 10° NNE
Landsat 7 4.0 20:20:38 20° S 20:23:52 71° WSW 20:28:39 10° NNW
Genesis I 3.7 20:20:10 10° NNW 20:24:05 52° NE 20:25:22 36° E
USA 245 3.1 20:24:37 37° SSE 20:26:04 81° ENE 20:29:25 10° NNW
Cosmos-2242 3.2 20:25:50 37° SE 20:27:05 49° E 20:31:16 10° NNE
Cosmos 2180 Rocket 4.4 20:23:29 10° S 20:29:40 86° E 20:35:51 10° N
Cosmos 1655 Rocket 4.0 20:27:32 10° N 20:33:53 88° E 20:37:46 25° S
SL-16 R/B 2.7 20:30:01 10° NNW 20:35:32 48° NE 20:37:53 31° ESE
Cosmos 1980 3.9 20:31:09 10° NNW 20:36:49 69° WSW 20:39:45 29° S
Cosmos 614 Rocket 4.1 20:32:10 10° SSW 20:37:18 72° WNW 20:42:26 10° NNE
BREEZE-M DEB (TANK) 4.2 20:34:48 10° W 20:39:41 89° N 21:00:13 10° E
Cosmos 2151 3.2 20:39:18 10° NNW 20:43:36 69° W 20:45:17 35° S
COSMOS 2428 4.4 20:40:30 10° NW 20:45:11 26° WSW 20:49:50 10° SSW
Meteor 2-3 Rocket 3.7 20:39:53 10° NNW 20:45:42 88° W 20:48:26 33° S
Cosmos 2344 3.8 20:40:22 10° SW 20:47:47 73° NW 20:56:01 10° NE
ATLAS 3B R/B 3.8 20:42:15 10° NW 20:48:38 38° WSW 20:53:12 19° S
USA 215 3.4 20:45:38 32° SSE 20:48:45 62° SW 20:55:15 10° WNW
FALCON 9 DEB 3.1 20:46:08 10° WSW 20:49:33 83° NNW 20:49:44 77° NNE
Meteor 1-27 4.3 20:47:47 35° SSE 20:50:05 62° E 20:55:51 10° NNE
Cosmos 1812 Rocket 4.2 20:47:57 15° SSW 20:51:26 55° WNW 20:55:51 10° N
Cosmos 2221 4.1 20:53:18 21° ENE 20:53:18 21° ENE 20:55:39 10° NE
Resurs 01 Rocket 3.4 20:50:19 12° SSW 20:53:40 27° W 20:57:30 10° NW
Cosmos 1818 4.2 20:50:11 10° SW 20:55:33 58° NW 21:00:59 10° NE
ERS-1 Rocket 2.9 20:54:40 46° SSE 20:56:13 84° ENE 21:01:16 10° NNW
Cosmos 407 Rocket 3.4 20:53:35 17° SSW 20:57:33 86° WNW 21:02:46 10° NNE
Cosmos 44 4.4 20:52:45 10° WSW 20:57:48 49° NW 21:03:04 10° NNE
Cosmos 2219 Rocket 4.5 20:54:19 10° WNW 20:57:58 18° W 21:01:37 10° SW
Okean 3 Rocket 3.5 20:54:03 10° N 20:58:37 74° ENE 20:59:21 60° SE
Cosmos 1766 Rocket 3.4 20:58:38 10° N 21:02:59 81° ENE 21:03:29 68° SSE
Cosmos 1633 3.9 20:59:58 10° NNW 21:03:15 33° W 21:04:10 28° WSW
CARTOSAT-1 3.9 21:04:22 46° SSW 21:05:24 61° W 21:09:42 10° NNW
Meteor 1-4 Rocket 3.6 21:10:11 36° NE 21:10:11 36° NE 21:12:29 10° NNE
Lacrosse 5 rocket 3.2 21:07:23 10° WNW 21:11:10 30° N 21:14:12 15° ENE
Cosmos 1954 Rocket 3.9 21:12:17 58° SE 21:12:52 63° ESE 21:17:59 10° NNE
COSMOS 2455 3.0 21:18:15 49° ESE 21:18:24 49° ESE 21:24:11 10° NE
Cosmos 1869 3.3 21:18:39 80° N 21:18:39 80° N 21:22:27 10° N
SPOT 5 3.0 21:19:30 52° SSW 21:20:19 62° W 21:25:02 10° NNW
Cosmos 1140 Rocket 3.8 21:18:31 20° SW 21:22:02 63° WNW 21:27:10 10° NNE
Cosmos 2237 Rocket 3.4 21:20:26 10° NW 21:25:23 32° WSW 21:27:26 25° SW
SeaSat 1 3.8 21:21:57 10° NE 21:24:38 25° ENE 21:24:38 25° ENE
Terra 1.8 21:28:59 63° SSW 21:29:33 71° WSW 21:34:20 10° NNW
Timation 1 Rocket 4.2 21:33:38 59° SSE 21:34:34 69° ESE 21:40:32 10° NE
Cosmos 2082 3.5 21:39:13 69° SSE 21:39:40 73° ESE 21:45:18 10° NNE
Cosmos 2263 Rocket 3.6 21:42:46 23° ENE 21:42:46 23° ENE 21:45:37 10° NE
Cosmos 2227 Rocket 2.5 21:38:45 22° SW 21:42:29 64° WNW 21:48:08 10° NNE
USA 229 DEB 4.2 21:35:54 10° NW 21:43:01 60° NE 21:46:07 36° ESE
USA 229 4.2 21:35:59 10° NW 21:43:07 60° NE 21:46:15 36° ESE
Cosmos 468 Rocket 3.8 21:38:18 10° NNW 21:43:28 85° WSW 21:43:44 80° S
Cosmos 1842 Rocket 3.8 21:49:34 63° NNE 21:49:34 63° NNE 21:53:23 10° NNE
Cosmos 1603 4.2 21:44:08 10° NNW 21:49:43 49° NE 21:50:37 45° E
Cosmos 2297 Rocket 3.1 21:44:36 10° SW 21:50:02 47° NW 21:55:31 10° NNE
Cosmos 841 Rocket 3.7 21:46:09 10° NNW 21:51:18 57° ENE 21:51:30 57° ENE
Cosmos 2219 4.0 21:47:37 11° SW 21:52:46 48° NW 21:58:14 10° NNE
H-2A R/B 4.1 21:49:29 10° N 21:53:35 52° WNW 21:53:41 52° WNW
Cosmos 1745 Rocket 4.0 21:49:24 10° N 21:55:43 66° ENE 21:56:33 60° ESE
Cosmos 1814 Rocket 4.5 21:53:58 10° NNW 21:59:09 49° ENE 21:59:24 48° ENE
NOSS 3-1 (A) 4.2 21:53:40 10° NW 22:00:54 68° NE 22:04:04 40° ESE
Cosmos 1709 Rocket 4.5 21:55:27 10° N 22:01:25 44° ENE 22:02:05 43° E
Cosmos 921 Rocket 3.8 21:58:08 10° NNW 22:01:48 47° NNE 22:01:48 47° NNE
Cosmos 1862 4.3 21:59:05 10° NNW 22:02:04 43° NW 22:02:04 43° NW
Cosmos 1763 Rocket 3.6 21:58:04 10° NNW 22:02:58 61° WSW 22:02:58 61° WSW
Cosmos 1408 Rocket 4.5 22:02:25 10° NNW 22:06:07 42° WNW 22:06:07 42° WNW
S3M 4.0 22:08:54 64° ESE 22:09:24 67° E 22:15:45 10° NNE
Spot 4 4.0 22:11:46 66° NE 22:11:46 66° NE 22:16:12 10° N
Cosmos 1805 Rocket 4.3 22:07:50 10° N 22:11:11 48° NNE 22:11:11 48° NNE
SL-16 R/B 3.2 22:14:26 10° NW 22:19:30 34° WSW 22:19:46 34° WSW
Sich 1 4.0 22:17:50 10° N 22:20:54 43° NNE 22:20:54 43° NNE
Cosmos 1743 Rocket 4.4 22:17:54 10° NNW 22:21:17 46° NW 22:21:17 46° NW
Cosmos 540 Rocket 3.6 22:17:25 10° NNW 22:22:04 69° WNW 22:22:04 69° WNW
NOSS 3-1 (C) 4.0 22:19:43 10° NW 22:27:07 72° SW 22:28:43 59° S
Meteor 1-20 Rocket 4.3 22:23:29 10° N 22:29:19 71° ENE 22:29:20 71° ENE
Cosmos 2221 3.7 22:30:07 37° WNW 22:30:07 37° WNW 22:33:41 10° N
Cosmos 1570 Rocket 4.1 22:24:24 10° NNW 22:29:20 76° N 22:29:20 76° N
Cosmos 1386 Rocket 4.4 22:28:16 10° NNW 22:34:19 71° W 22:34:38 69° WSW
Cosmos 1633 Rocket 4.3 22:31:39 10° N 22:34:39 36° NNE 22:34:39 36° NNE
Cosmos 44 Rocket 3.7 22:36:37 65° NW 22:36:38 65° NW 22:41:50 10° NE
Aureole 1 Rocket 3.6 22:38:07 78° NNW 22:38:07 78° NNW 22:42:39 10° NNE
Cosmos 1553 Rocket 4.3 22:39:11 49° WSW 22:40:12 55° WNW 22:46:12 10° N
ALOS 2 3.5 22:49:56 47° NNW 22:49:56 47° NNW 22:53:06 10° NNW
Cosmos 1741 Rocket 4.4 22:48:41 59° WNW 22:48:45 59° WNW 22:54:00 10° NNE
Cosmos 1943 3.3 22:43:52 10° NNW 22:48:59 67° WNW 22:48:59 67° WNW
Lacrosse 5 rocket 2.7 22:46:41 10° NW 22:49:48 41° NNW 22:49:48 41° NNW
ATLAS 5 CENTAUR R/B 4.3 22:52:05 10° NNW 22:56:01 22° NNE 23:00:27 10° ENE
Thor Agena Rocket 4.3 22:54:46 10° NNE 22:58:37 42° ENE 22:58:37 42° ENE
SeaSat 1 3.2 22:59:18 10° NNE 23:04:02 46° NW 23:04:24 45° WNW
COSMOS 2455 3.9 23:01:18 24° W 23:04:29 41° NW 23:10:12 10° NNE
Cosmos 2208 Rocket 4.5 22:59:17 10° NNW 23:03:42 55° WNW 23:03:42 55° WNW
Cosmos 2315 Rocket 3.9 23:10:31 82° SW 23:10:44 84° W 23:17:09 10° N
Iridium 4 Rocket 3.8 23:11:57 61° N 23:11:57 61° N 23:16:19 10° N
Cosmos 2184 Rocket 4.3 23:05:51 10° N 23:12:07 57° ENE 23:12:34 55° E
Cosmos 1151 Rocket 4.3 23:21:43 39° N 23:21:43 39° N 23:24:31 10° N
Meteor 1-14 Rocket 4.3 23:15:38 10° NNW 23:21:32 84° NE 23:21:32 84° NE
Cosmos 968 Rocket 4.1 23:24:12 49° ENE 23:24:12 49° ENE 23:28:17 10° NNE
Cosmos 2263 Rocket 2.5 23:24:25 57° WNW 23:24:35 57° WNW 23:30:06 10° NNE
USA 281 3.1 23:33:03 72° SE 23:33:46 84° ENE 23:40:24 10° NNW
USA 229 DEB 4.3 23:27:04 10° NW 23:33:33 45° WSW 23:33:33 45° WSW
USA 229 4.3 23:27:09 10° NW 23:33:40 45° WSW 23:33:40 45° WSW
NOSS 2-2 (D) 4.5 23:30:13 10° NW 23:35:21 70° NE 23:36:02 64° E
Cosmos 1844 Rocket 3.4 23:39:31 44° E 23:39:31 44° E 23:43:53 10° NE
SL-4 R/B 4.3 23:41:43 21° ENE 23:41:43 21° ENE 23:43:24 10° ENE
Cosmos 1486 Rocket 4.4 23:40:25 57° NE 23:40:25 57° NE 23:44:49 10° NNE
Cosmos 2074 Rocket 3.8 23:36:58 10° N 23:43:16 88° WSW 23:43:22 87° SW
Helios 1A 4.4 23:45:17 36° NE 23:45:17 36° NE 23:48:22 10° N
Meteor 2-6 Rocket 4.3 23:48:14 65° NE 23:48:14 65° NE 23:53:02 10° NNE
Meteor 1-5 Rocket 4.2 23:41:59 10° NNW 23:47:20 77° NNW 23:47:20 77° NNW
SJ 16-02 4.0 23:56:01 10° E 23:56:01 10° E 23:56:25 10° ENE
